Newport News, VA

6:05 AM EDT on June 27, 2017 (GMT -0400)
Newport News-Williamsburg International

Weather History for KPHF - October, 2013

Change the Weather History Date:

Sunday, October 27, 2013

  Actual Average Record
Temperature  
Mean Temperature 56 °F -  
Max Temperature 68 °F 64 °F 84 °F (2010)
Min Temperature 45 °F 48 °F 33 °F (1979)
Degree Days  
Heating Degree Days 8    
Growing Degree Days 6 (Base 50)    
Moisture  
Dew Point 38 °F    
Average Humidity 55    
Maximum Humidity 86    
Minimum Humidity 30    
Precipitation  
Precipitation 0.00 in - - ()
Sea Level Pressure  
Sea Level Pressure 30.07 in    
Wind  
Wind Speed 6 mph (West)    
Max Wind Speed 10 mph    
Max Gust Speed -    
Visibility 10 miles    
Events      
Averages and records for this station are not official NWS values.
T = Trace of Precipitation, MM = Missing Value Source: NWS Daily Summary

Daily Weather History Graph

Daily Weather History Graph

Search for Another Location

Airport or City:

Trip Planner

Search our weather history database for the weather conditions in past years. The results will help you decide how hot, cold, wet, or windy it might be!

Date:

Astronomy

Oct. 27, 2013 Rise Set
Actual Time 7:25 AM EDT 6:13 PM EDT
Civil Twilight 6:58 AM EDT 6:40 PM EDT
Nautical Twilight 6:28 AM EDT 7:10 PM EDT
Astronomical Twilight 5:57 AM EDT 7:41 PM EDT
Moon 12:29 AM EDT 2:13 PM EDT
Length of Visible Light 11h 41m
Length of Day
10h 48m
Last Quarter, 44% of the Moon is Illuminated
Oct 27
Last Quarter
Nov 3
New
Nov 10
First Quarter
Nov 17
Full
Nov 25
Last Quarter

Hourly Weather History & Observations

Time (EDT) Temp. Dew Point Humidity Pressure Visibility Wind Dir Wind Speed Gust Speed Precip Events Conditions
12:54 AM 53.1 °F 34.0 °F 48% 30.01 in 10.0 mi SW 10.4 mph - N/A   Clear
1:54 AM 55.0 °F 35.1 °F 47% 30.02 in 10.0 mi WSW 6.9 mph - N/A   Mostly Cloudy
2:54 AM 54.0 °F 35.1 °F 49% 30.02 in 10.0 mi WSW 9.2 mph - N/A   Overcast
3:54 AM 54.0 °F 35.1 °F 49% 30.01 in 10.0 mi WSW 8.1 mph - N/A   Overcast
4:54 AM 52.0 °F 36.0 °F 54% 30.01 in 10.0 mi WSW 6.9 mph - N/A   Overcast
5:54 AM 48.9 °F 36.0 °F 61% 30.03 in 10.0 mi West 5.8 mph - N/A   Clear
6:54 AM 50.0 °F 37.0 °F 61% 30.04 in 10.0 mi West 6.9 mph - N/A   Clear
7:54 AM 48.9 °F 37.9 °F 66% 30.06 in 10.0 mi West 4.6 mph - N/A   Clear
8:54 AM 54.0 °F 39.9 °F 59% 30.09 in 10.0 mi West 3.5 mph - N/A   Clear
9:54 AM 59.0 °F 39.9 °F 49% 30.10 in 10.0 mi West 4.6 mph - N/A   Clear
10:54 AM 60.1 °F 39.0 °F 46% 30.10 in 10.0 mi WSW 5.8 mph - N/A   Clear
11:54 AM 64.0 °F 37.0 °F 37% 30.10 in 10.0 mi NW 5.8 mph - N/A   Clear
12:54 PM 64.9 °F 34.0 °F 32% 30.08 in 10.0 mi WNW 9.2 mph - N/A   Clear
1:54 PM 66.9 °F 34.0 °F 30% 30.05 in 10.0 mi West 5.8 mph - N/A   Clear
2:54 PM 66.0 °F 34.0 °F 30% 30.04 in 10.0 mi Variable 3.5 mph - N/A   Clear
3:54 PM 68.0 °F 35.1 °F 30% 30.04 in 10.0 mi NW 5.8 mph - N/A   Clear
4:54 PM 66.0 °F 36.0 °F 33% 30.05 in 10.0 mi Calm Calm - N/A   Clear
5:54 PM 62.1 °F 44.1 °F 52% 30.06 in 10.0 mi Calm Calm - N/A   Clear
6:54 PM 54.0 °F 46.0 °F 75% 30.09 in 10.0 mi Calm Calm - N/A   Clear
7:54 PM 50.0 °F 44.1 °F 80% 30.11 in 10.0 mi East 3.5 mph - N/A   Clear
8:54 PM 46.9 °F 41.0 °F 80% 30.12 in 10.0 mi Calm Calm - N/A   Clear
9:54 PM 45.0 °F 41.0 °F 86% 30.13 in 10.0 mi Calm Calm - N/A   Clear
10:54 PM 46.9 °F 43.0 °F 86% 30.14 in 10.0 mi Calm Calm - N/A   Clear
11:54 PM 46.0 °F 41.0 °F 83% 30.14 in 10.0 mi Calm Calm - N/A   Clear